FLOCK 1C-5

Last updated on Wed Feb 14 2018 16:18:47 GMT+0000 (Coordinated Universal Time)

1 40038U 14033AE 18045.31146831 .00000423 00000-0 50570-4 0 9991 2 40038 97.9240 323.2126 0013551 214.3977 145.6369 14.89338341198540
UTC large
Height (km)
Speed (km/s)
/
Latitude / Longitude
Inclination (degrees)
Orbital Period (minutes)
Azimuth
Elevation
Range (km)
Doppler Factor

Next 0 passes for location: London (51.5072 / 0.1276)

Sorry there are no passes over London.